Flag for Micronesia Weather past 2 weeks in Weno, Truk, Micronesia

Now
86 °F

More clouds than sun.


Feels Like: 102 °F
Forecast: 79 / 86 °F
Wind: 6 mph from North

Location: Truk Intl / Moen Island

Current Time: Oct 23, 2014 at 10:02:46 AM

Latest Report: Oct 23, 2014 at 8:50 AM


Visibility: 15 mi

Pressure: 29.86 "Hg

Humidity: 86%

Dew point: 81 °F

Location of WenoLocation

Historic Weather in Weno — Graph

°F

Weno temperature yesterday

Maximum temperature yesterday: 90 °F (at 1:53 PM)
Minimum temperature yesterday: 78 °F (at 5:50 AM)
Average temperature yesterday: 83 °F

Past Weeks' High & Low Weather Summary

 TemperatureHumidityPressure
High91 °F (Oct 20, 2:55 PM)100% (Oct 9, 3:50 AM)29.92 "Hg (Oct 9, 3:50 AM)
Low74 °F (Oct 13, 8:50 PM)69% (Oct 22, 10:52 AM)29.74 "Hg (Oct 8, 2:52 PM)
Average82 °F89%29.82 "Hg
* Reported Oct 8 8:50 AM — Oct 23 8:50 AM, Weno, Weather by CustomWeather, © 2014

Note: Actual official high and low records may vary slightly from our data, if they occured in-between our weather recording intervals... More about our weather records

Advertising

Weno weather history for previous 24 hours

 ConditionsComfort  
Time TempWeatherWind HumidityBarometerVisibility
8:50 AM
Oct 23
86 °FMore clouds than sun.6 mph86%29.86 "Hg15 mi
7:50 AM84 °FMore clouds than sun.7 mph89%29.84 "Hg15 mi
6:51 AM83 °FMore clouds than sun.7 mph87%29.82 "Hg15 mi
5:50 AM82 °FScattered showers. More clouds than sun.7 mph91%29.80 "Hg15 mi
4:50 AM83 °FPartly cloudy.7 mph84%29.78 "Hg15 mi
3:50 AM82 °FPartly cloudy.9 mph79%29.78 "Hg15 mi
2:51 AM78 °FPartly cloudy.No wind96%29.78 "Hg15 mi
1:53 AM78 °FPartly cloudy.No wind96%29.79 "Hg15 mi
12:52 AM79 °FSprinkles. Mostly cloudy.10 mph96%29.82 "Hg12 mi
11:50 PM
Oct 22
81 °FPassing clouds.No wind90%29.83 "Hg15 mi
10:50 PM80 °FPassing clouds.No wind86%29.84 "Hg15 mi
9:50 PM80 °FPassing clouds.5 mph91%29.85 "Hg15 mi
8:52 PM81 °FPassing clouds.3 mph92%29.85 "Hg15 mi
7:51 PM80 °FPassing clouds.No wind88%29.84 "Hg15 mi
6:56 PM83 °FPassing clouds.No wind88%29.83 "Hg15 mi
5:53 PM83 °FPassing clouds.No wind91%29.80 "Hg15 mi
4:54 PM86 °FSprinkles. Broken clouds.5 mph88%29.78 "Hg15 mi
3:53 PM90 °FPartly sunny.3 mph83%29.76 "Hg15 mi
2:56 PM88 °FPartly sunny.3 mph81%29.76 "Hg15 mi
1:53 PM90 °FPartly sunny.5 mph87%29.76 "Hg15 mi
12:53 PM89 °FPartly sunny.3 mph70%29.78 "Hg15 mi
11:53 AM89 °FPassing clouds.3 mph81%29.79 "Hg15 mi
10:52 AM90 °FPassing clouds.5 mph69%29.80 "Hg15 mi
Weather by CustomWeather, © 2014

See weather overviewHow to use our weather pages